TimePDT,TemperatureF,Dew PointF,Humidity,Sea Level PressureIn,VisibilityMPH,Wind Direction,Wind SpeedMPH,Gust SpeedMPH,PrecipitationIn,Events,Conditions,WindDirDegrees,DateUTC
12:53 AM,46.9,37.0,68,30.25,10.0,Calm,Calm,-,N/A,,Clear,0,2012-10-06 07:53:00
1:53 AM,46.0,37.0,71,30.25,10.0,Calm,Calm,-,N/A,,Clear,0,2012-10-06 08:53:00
2:53 AM,46.0,36.0,68,30.24,10.0,Calm,Calm,-,N/A,,Clear,0,2012-10-06 09:53:00
3:53 AM,46.9,39.0,74,30.23,10.0,North,3.5,-,N/A,,Clear,350,2012-10-06 10:53:00
4:53 AM,48.9,41.0,74,30.23,10.0,Calm,Calm,-,N/A,,Clear,0,2012-10-06 11:53:00
5:53 AM,48.0,39.9,74,30.23,10.0,Calm,Calm,-,N/A,,Clear,0,2012-10-06 12:53:00
6:53 AM,44.6,37.4,76,30.23,10.0,Calm,Calm,-,N/A,,Clear,0,2012-10-06 13:53:00
7:53 AM,43.0,35.1,74,30.25,10.0,Calm,Calm,-,N/A,,Clear,0,2012-10-06 14:53:00
8:53 AM,48.9,37.0,64,30.25,10.0,Calm,Calm,-,N/A,,Clear,0,2012-10-06 15:53:00
9:53 AM,59.0,39.0,48,30.24,10.0,NW,8.1,-,N/A,,Clear,310,2012-10-06 16:53:00
10:53 AM,64.0,39.0,40,30.23,10.0,NW,10.4,-,N/A,,Clear,310,2012-10-06 17:53:00
11:53 AM,69.1,37.0,31,30.22,10.0,WNW,11.5,-,N/A,,Clear,300,2012-10-06 18:53:00
12:53 PM,71.1,37.9,30,30.20,10.0,NNW,9.2,-,N/A,,Clear,340,2012-10-06 19:53:00
1:53 PM,73.9,36.0,25,30.17,10.0,NNW,8.1,-,N/A,,Clear,340,2012-10-06 20:53:00
2:53 PM,75.0,33.1,22,30.15,10.0,NNW,8.1,-,N/A,,Clear,340,2012-10-06 21:53:00
3:53 PM,73.9,37.9,27,30.14,10.0,NW,11.5,-,N/A,,Clear,310,2012-10-06 22:53:00
4:53 PM,72.0,39.9,31,30.14,10.0,NW,8.1,-,N/A,,Clear,310,2012-10-06 23:53:00
5:53 PM,69.1,42.1,38,30.13,10.0,NW,6.9,-,N/A,,Clear,320,2012-10-07 00:53:00
6:53 PM,66.0,41.0,40,30.13,10.0,NW,6.9,-,N/A,,Clear,310,2012-10-07 01:53:00
7:53 PM,64.0,37.0,37,30.14,10.0,West,5.8,-,N/A,,Clear,280,2012-10-07 02:53:00
8:53 PM,63.0,39.0,41,30.13,10.0,NNW,5.8,-,N/A,,Clear,330,2012-10-07 03:53:00
9:53 PM,61.0,39.0,44,30.13,10.0,Calm,Calm,-,N/A,,Clear,0,2012-10-07 04:53:00
10:53 PM,55.0,39.0,55,30.12,10.0,Calm,Calm,-,N/A,,Clear,0,2012-10-07 05:53:00
11:53 PM,53.1,39.0,59,30.12,10.0,Calm,Calm,-,N/A,,Clear,0,2012-10-07 06:53:00